Location: State Camp
(41.2367°N, 77.7828°W)
Time: 17:29:11
(UTC-04:00)

ADEOS Rocket - Visible Passes

Search period start: 17 August 2017 00:00
Search period end: 27 August 2017 00:00
Orbit: 858 x 1307 km, 98.8° (Epoch: 16 August)

Date Brightness Start Highest point End Pass type
(mag) Time Alt. Az. Time Alt. Az. Time Alt. Az.
17 Aug 5.1 01:25:50 10° ENE 01:27:20 13° ENE 01:27:20 13° ENE visible
17 Aug 2.8 03:09:15 10° N 03:14:17 67° NW 03:14:17 67° NW visible
18 Aug 3.8 02:20:24 10° NNE 02:24:33 40° ENE 02:24:33 40° ENE visible
18 Aug 4.0 04:06:39 10° NNW 04:10:56 24° WNW 04:11:29 23° WNW visible
19 Aug 5.0 01:32:48 10° NE 01:34:49 15° ENE 01:34:49 15° ENE visible
19 Aug 3.0 03:16:51 10° N 03:21:45 57° NW 03:21:45 57° NW visible
20 Aug 3.6 02:27:52 10° NNE 02:32:01 44° ENE 02:32:01 44° ENE visible
20 Aug 4.2 04:14:28 10° NNW 04:18:24 20° WNW 04:18:58 20° WNW visible
21 Aug 4.8 01:39:55 10° NE 01:42:17 18° ENE 01:42:17 18° ENE visible
21 Aug 3.2 03:24:29 10° N 03:29:13 48° NW 03:29:13 48° NW visible
22 Aug 3.5 02:35:21 10° NNE 02:39:29 49° NE 02:39:29 49° NE visible
22 Aug 4.4 04:22:20 10° NNW 04:25:51 18° WNW 04:26:26 17° WNW visible
23 Aug 4.7 01:47:08 10° NE 01:49:45 20° ENE 01:49:45 20° ENE visible
23 Aug 3.4 03:32:07 10° N 03:36:42 42° NW 03:36:42 42° NW visible
24 Aug 3.4 02:42:51 10° NNE 02:46:58 51° NNE 02:46:58 51° NNE visible
24 Aug 4.6 04:30:16 10° NNW 04:33:18 15° WNW 04:33:55 15° WNW visible
25 Aug 4.6 01:54:26 10° NE 01:57:14 23° ENE 01:57:14 23° ENE visible
25 Aug 3.6 03:39:47 10° N 03:44:11 36° NW 03:44:11 36° NW visible
26 Aug 3.4 02:50:23 10° NNE 02:54:27 52° NNE 02:54:27 52° NNE visible
26 Aug 4.7 04:38:20 10° NNW 04:40:44 13° WNW 04:41:24 13° WNW visible
